Weather in Gulistan

Uzbekistan     40°00′49″N   66°47′27″E
temp.,
°C
wind,
m/s
gust,
m/s
humid.,
%
clouds,
%
prec.,
mm/h
press.,
hPa
HPBL,
m
28 september, tue
tue2823:00+17ene48540 0.0 1015272
02:00+15ne35610 0.0 101594
05:00+14ene33640 0.0 101546
08:00+17ene23530 0.0 1015150
11:00+24wsw23310 0.0 1014824
14:00+27wnw45225 0.0 10121459
17:00+26wnw33235 0.0 1012874
20:00+20nne5103539 0.0 1013174
29 september, wed
wed2923:00+18ne46405 0.0 101395
02:00+17ne45370 0.0 101370
05:00+16ne453684 0.0 101461
08:00+19ene35325 0.0 1015183
11:00+25ene33230 0.0 1014986
14:00+28w23160 0.0 10131897
17:00+28wnw32150 0.0 10131498
20:00+21ene611290 0.0 1016273
30 september, thu
thu3023:00+18ne611340 0.0 1017281
02:00+16ne511410 0.0 1017260
05:00+15ne510450 0.0 1017220
08:00+17ne510370 0.0 1018383
11:00+24ene77220 0.0 1016952
14:00+27ene65185 0.0 10151260
17:00+25ene77205 0.0 1015998
20:00+20ne712300 0.0 1016349
1 october, fri
fri123:00+17ene713370 0.0 1017421
02:00+15ene7144482 0.0 1016399
05:00+14ene713459 0.0 1017376
08:00+15ene7124068 0.0 1018415
11:00+23ene89235 0.0 1016793
14:00+26ene88195 0.0 10151016
17:00+23ene910245 0.0 1015818
20:00+18ne713335 0.0 1017435
2 october, sat
sat223:00+17ene612347 0.0 1017373
02:00+14ne5113938 0.0 1017254
05:00+13ne4739100 0.0 1018175
08:00+15ene47311 0.0 1019298
11:00+21ene222323 0.0 1019873
14:00+24w2322100 0.0 10181673
17:00+22nne652587 0.0 1018515
20:00+15ne5946100 0.0 1020328